When you browse on this site, cookies collect data to enhance your experience and personalize the content and advertising you see.
Visit our Privacy Policy to learn more. By continuing to use the site, you agree to this use of cookies and data.
  • In Portugal
  • List of Countries
  • For 7 days
  • Water Temperature
  • Satellite Maps
  • Weather Map
  • Weather Widgets
  • user-avatar
    Login

    Hourly Weather Amar

    Today, 24 May, Friday

    Time Temperature Precipitation Wind Pressure Humidity
    00:00 +33°C° 0 mm 1 mps 753 mmHg 33%
    01:00 +33°C° 0 mm 1 mps 753 mmHg 31%
    02:00 +34°C° 0 mm 2 mps 752 mmHg 30%
    03:00 +34°C° 0 mm 3 mps 752 mmHg 29%
    04:00 +34°C° 0 mm 3 mps 752 mmHg 28%
    05:00 +35°C° 0 mm 3 mps 753 mmHg 28%
    06:00 +35°C° 0 mm 4 mps 753 mmHg 27%
    07:00 +36°C° 0 mm 4 mps 753 mmHg 24%
    08:00 +38°C° 0 mm 4 mps 753 mmHg 21%
    09:00 +39°C° 0 mm 3 mps 754 mmHg 18%
    10:00 +40°C° 0 mm 3 mps 754 mmHg 17%
    11:00 +40°C° 0 mm 3 mps 754 mmHg 16%
    12:00 +42°C° 0 mm 3 mps 754 mmHg 16%
    13:00 +41°C° 0 mm 4 mps 753 mmHg 18%
    14:00 +41°C° 0 mm 4 mps 753 mmHg 20%
    15:00 +41°C° 0 mm 5 mps 752 mmHg 21%
    16:00 +38°C° 0 mm 4 mps 752 mmHg 25%
    17:00 +37°C° 0 mm 4 mps 753 mmHg 29%
    18:00 +36°C° 0 mm 4 mps 753 mmHg 33%
    19:00 +36°C° 0 mm 4 mps 753 mmHg 34%
    20:00 +35°C° 0 mm 3 mps 753 mmHg 36%
    21:00 +35°C° 0 mm 3 mps 753 mmHg 37%
    22:00 +34°C° 0 mm 2 mps 753 mmHg 37%
    23:00 +34°C° 0 mm 2 mps 753 mmHg 36%

    Tomorrow, 25 May, Saturday

    Time Temperature Precipitation Wind Pressure Humidity
    00:00 +34°C° 0 mm 2 mps 753 mmHg 35%
    01:00 +32°C° 0 mm 2 mps 753 mmHg 37%
    02:00 +32°C° 0 mm 2 mps 753 mmHg 38%
    03:00 +31°C° 0 mm 2 mps 753 mmHg 39%
    04:00 +32°C° 0 mm 1 mps 753 mmHg 39%
    05:00 +32°C° 0 mm 1 mps 753 mmHg 40%
    06:00 +32°C° 0 mm 1 mps 754 mmHg 40%
    07:00 +33°C° 0 mm 1 mps 754 mmHg 37%
    08:00 +34°C° 0 mm 1 mps 754 mmHg 33%
    09:00 +35°C° 0 mm 1 mps 754 mmHg 30%
    10:00 +36°C° 0 mm 1 mps 754 mmHg 28%
    11:00 +37°C° 0 mm 1 mps 754 mmHg 25%
    12:00 +39°C° 0 mm 1 mps 754 mmHg 23%
    13:00 +39°C° 0 mm 1 mps 753 mmHg 22%
    14:00 +39°C° 0 mm 2 mps 753 mmHg 21%
    15:00 +40°C° 0 mm 3 mps 753 mmHg 20%
    16:00 +40°C° 0 mm 4 mps 752 mmHg 23%
    17:00 +38°C° 0 mm 4 mps 752 mmHg 26%
    18:00 +37°C° 0 mm 4 mps 752 mmHg 28%
    19:00 +36°C° 0 mm 4 mps 752 mmHg 28%
    20:00 +36°C° 0 mm 3 mps 752 mmHg 29%
    21:00 +35°C° 0 mm 3 mps 752 mmHg 29%
    22:00 +35°C° 0 mm 3 mps 752 mmHg 29%
    23:00 +35°C° 0 mm 3 mps 752 mmHg 29%

    Day after tomorrow, 26 May, Sunday

    Time Temperature Precipitation Wind Pressure Humidity
    00:00 +35°C° 0 mm 3 mps 752 mmHg 29%
    01:00 +34°C° 0 mm 3 mps 752 mmHg 31%
    02:00 +34°C° 0 mm 2 mps 752 mmHg 33%
    03:00 +32°C° 0 mm 2 mps 751 mmHg 35%
    04:00 +32°C° 0 mm 2 mps 752 mmHg 34%
    05:00 +34°C° 0 mm 2 mps 752 mmHg 33%
    06:00 +33°C° 0 mm 1 mps 752 mmHg 32%
    07:00 +35°C° 0 mm 2 mps 752 mmHg 30%
    08:00 +36°C° 0 mm 2 mps 752 mmHg 29%
    09:00 +36°C° 0 mm 2 mps 753 mmHg 27%
    10:00 +37°C° 0 mm 2 mps 753 mmHg 26%
    11:00 +38°C° 0 mm 2 mps 753 mmHg 25%
    12:00 +38°C° 0 mm 2 mps 753 mmHg 23%
    13:00 +39°C° 0 mm 2 mps 752 mmHg 22%
    14:00 +39°C° 0 mm 2 mps 752 mmHg 22%
    15:00 +39°C° 0 mm 3 mps 751 mmHg 21%
    16:00 +39°C° 0 mm 3 mps 751 mmHg 22%
    17:00 +38°C° 0 mm 3 mps 751 mmHg 22%
    18:00 +38°C° 0 mm 3 mps 751 mmHg 23%
    19:00 +37°C° 0 mm 3 mps 751 mmHg 26%
    20:00 +36°C° 0 mm 3 mps 752 mmHg 28%
    21:00 +36°C° 0 mm 3 mps 752 mmHg 30%
    22:00 +35°C° 0 mm 2 mps 752 mmHg 30%
    23:00 +35°C° 0 mm 2 mps 752 mmHg 30%

    27 May, Monday

    Time Temperature Precipitation Wind Pressure Humidity
    00:00 +35°C° 0 mm 2 mps 752 mmHg 30%
    01:00 +34°C° 0 mm 2 mps 751 mmHg 32%
    02:00 +34°C° 0 mm 3 mps 751 mmHg 33%
    03:00 +33°C° 0 mm 3 mps 751 mmHg 35%
    04:00 +32°C° 0 mm 2 mps 751 mmHg 35%
    05:00 +32°C° 0 mm 2 mps 751 mmHg 34%
    06:00 +33°C° 0 mm 1 mps 751 mmHg 33%
    07:00 +34°C° 0 mm 1 mps 752 mmHg 31%
    08:00 +34°C° 0 mm 1 mps 752 mmHg 28%
    09:00 +36°C° 0 mm 2 mps 753 mmHg 26%
    10:00 +37°C° 0 mm 2 mps 752 mmHg 24%
    11:00 +38°C° 0 mm 2 mps 752 mmHg 21%
    12:00 +39°C° 0 mm 1 mps 752 mmHg 19%
    13:00 +40°C° 0 mm 2 mps 752 mmHg 18%
    14:00 +41°C° 0 mm 2 mps 752 mmHg 16%
    15:00 +42°C° 0 mm 3 mps 751 mmHg 15%
    16:00 +40°C° 0 mm 3 mps 751 mmHg 18%
    17:00 +39°C° 0 mm 3 mps 751 mmHg 20%
    18:00 +38°C° 0 mm 4 mps 751 mmHg 23%
    19:00 +37°C° 0 mm 3 mps 751 mmHg 25%
    20:00 +37°C° 0 mm 3 mps 752 mmHg 27%
    21:00 +36°C° 0 mm 3 mps 752 mmHg 30%
    22:00 +36°C° 0 mm 2 mps 752 mmHg 29%
    23:00 +35°C° 0 mm 2 mps 752 mmHg 28%

    28 May, Tuesday

    Time Temperature Precipitation Wind Pressure Humidity
    00:00 +34°C° 0 mm 1 mps 751 mmHg 27%
    01:00 +33°C° 0 mm 1 mps 751 mmHg 27%
    02:00 +33°C° 0 mm 1 mps 751 mmHg 27%
    03:00 +32°C° 0 mm 1 mps 751 mmHg 27%
    04:00 +33°C° 0 mm 1 mps 751 mmHg 27%
    05:00 +33°C° 0 mm 1 mps 751 mmHg 27%
    06:00 +33°C° 0 mm 1 mps 752 mmHg 27%
    07:00 +35°C° 0 mm 1 mps 752 mmHg 25%
    08:00 +36°C° 0 mm 1 mps 752 mmHg 24%
    09:00 +38°C° 0 mm 2 mps 753 mmHg 22%
    10:00 +38°C° 0 mm 2 mps 752 mmHg 21%
    11:00 +39°C° 0 mm 1 mps 752 mmHg 20%
    12:00 +40°C° 0 mm 1 mps 752 mmHg 19%
    13:00 +41°C° 0 mm 1 mps 751 mmHg 18%
    14:00 +41°C° 0 mm 1 mps 751 mmHg 17%
    15:00 +42°C° 0 mm 1 mps 750 mmHg 15%
    16:00 +41°C° 0 mm 1 mps 750 mmHg 16%
    17:00 +41°C° 0 mm 2 mps 750 mmHg 16%
    18:00 +41°C° 0 mm 2 mps 750 mmHg 17%
    19:00 +40°C° 0 mm 2 mps 751 mmHg 18%
    20:00 +39°C° 0 mm 2 mps 751 mmHg 19%
    21:00 +38°C° 0 mm 2 mps 751 mmHg 20%
    22:00 +37°C° 0 mm 2 mps 751 mmHg 21%
    23:00 +36°C° 0 mm 1 mps 751 mmHg 22%

    29 May, Wednesday

    Time Temperature Precipitation Wind Pressure Humidity
    00:00 +33°C° 0 mm 0 mps 750 mmHg 23%
    01:00 +34°C° 0 mm 1 mps 750 mmHg 23%
    02:00 +34°C° 0 mm 1 mps 750 mmHg 23%
    03:00 +34°C° 0 mm 1 mps 750 mmHg 23%
    04:00 +34°C° 0 mm 1 mps 750 mmHg 23%
    05:00 +35°C° 0 mm 1 mps 750 mmHg 22%
    06:00 +35°C° 0 mm 1 mps 751 mmHg 22%
    07:00 +37°C° 0 mm 2 mps 751 mmHg 21%
    08:00 +38°C° 0 mm 2 mps 751 mmHg 19%
    09:00 +39°C° 0 mm 2 mps 751 mmHg 18%
    10:00 +40°C° 0 mm 2 mps 751 mmHg 17%
    11:00 +41°C° 0 mm 2 mps 751 mmHg 17%
    12:00 +41°C° 0 mm 2 mps 751 mmHg 16%
    13:00 +41°C° 0 mm 2 mps 750 mmHg 16%
    14:00 +42°C° 0 mm 3 mps 750 mmHg 16%
    15:00 +43°C° 0 mm 4 mps 750 mmHg 16%
    16:00 +42°C° 0 mm 4 mps 750 mmHg 18%
    17:00 +41°C° 0 mm 4 mps 750 mmHg 19%
    18:00 +40°C° 0 mm 4 mps 750 mmHg 20%
    19:00 +39°C° 0 mm 3 mps 750 mmHg 21%
    20:00 +38°C° 0 mm 3 mps 751 mmHg 23%
    21:00 +37°C° 0 mm 2 mps 751 mmHg 24%
    22:00 +37°C° 0 mm 2 mps 751 mmHg 25%
    23:00 +36°C° 0 mm 2 mps 750 mmHg 25%
    Show more